{"data":{"norad_id":51724,"intl_designator":"2022-016L","name":"STARLINK-3529","alt_names":[],"object_type":"PAYLOAD","status":"ACTIVE","operator":null,"country":"US","launch_date":"2022-02-21","launch_site_code":"AFETR","launch_vehicle":null,"mission":null,"orbit_class":"UNKNOWN","rcs_meters":null,"size_class":null,"mass_kg":null,"dimensions":null,"purposes":["comms"],"wikipedia_slug":null,"has_3d_model":false,"image_url":null,"decayed_at":null,"tle_current":{"epoch":"2026-05-24T19:35:23.886816Z","epoch_age_seconds":94965,"freshness":"FRESH","line1":"1 51724U 22016L   26144.81624869  .00000474  00000+0  47848-4 0  9990","line2":"2 51724  53.2150 347.3749 0001462  93.5430 266.5729 15.08838801234919","mean_motion":15.08838801,"eccentricity":0.0001462,"inclination_deg":53.215,"raan_deg":347.3749,"arg_perigee_deg":93.543,"mean_anomaly_deg":266.5729,"bstar":4.7848e-5,"rev_number":23491,"period_min":95.437630517297,"perigee_km":538.73565918119,"apogee_km":540.75844847853,"semimajor_km":6917.8840538299,"source":"CELESTRAK","updated_at":"2026-05-25T13:38:16.921748Z"}}}